Regional Weather Roundup
Issued by NWS

Home | Current Version | Previous Version | Text Only | Print | Product List | Glossary Off
Versions: 1 2 3 4 5 6 7 8 9 10 11 12 13 14 15 16 17 18 19 20 21 22 23 24 25 26 27 28 29 30 31 32 33 34 35 36 37 38 39 40 41 42 43 44 45 46 47 48 49 50

000
ASUS45 KSLC 230410
RWRUT

UTAH REGIONAL WEATHER ROUNDUP
NATIONAL WEATHER SERVICE SALT LAKE CITY UT
1000 PM MDT TUE JUL 22 2014

UTZ001>011-023>025-230500-

NORTHERN UTAH

CITY           SKY/WX    TMP DP  RH WIND       PRES   REMARKS
HILL AFB       CLEAR     83  37  19 E12       30.12S
LOGAN          NOT AVBL
OGDEN          CLEAR     78  42  27 S3        30.08S
PROVO AIRPORT  CLEAR     81  48  32 SE5       30.13R
SALT LAKE CITY PTCLDY    80  50  34 W7        30.07R
VERNAL         CLEAR     77  34  21 NW7       30.20R
WENDOVER       CLEAR     86  37  17 E5        30.05R
HEBER CITY     CLEAR     73  32  21 CALM      30.22R
WEST JORDAN    CLEAR     82  48  30 CALM      30.12R

$$

UTZ012>022-026-027-230500-

SOUTHERN UTAH

CITY           SKY/WX    TMP DP  RH WIND       PRES   REMARKS
BRYCE CANYON   CLEAR     62  32  32 W7        30.43R
CEDAR CITY     CLEAR     79  32  18 SW3       30.23R
MILFORD        CLEAR     79  37  22 S7        30.16R
MOAB/CYNLANDS  CLEAR     84  17   8 NW8       30.11R
PRICE          CLEAR     77  15   9 NE9       30.26R
ST GEORGE      CLEAR     95  30  10 SW7       30.02R
KANAB            N/A     84  36  17 W3        30.20R

$$

REGIONAL REPORTS     COLORADO/ARIZONA

CITY           SKY/WX    TMP DP  RH WIND       PRES   REMARKS
CRAIG, CO      CLEAR     62  41  46 SE3       30.32R
GRAND JUNCTION CLEAR     78  18  10 N5        30.14R
RIFLE          CLEAR     77  22  13 S6        30.23R
MONTROSE       PTCLDY    79  41  25 S6        30.26R
CORTEZ         CLEAR     76  37  24 NE12      30.27R
PAGE, AZ       MOCLDY    95  34  11 SW6       30.10R HX  90
GRAND CANYON   MOCLDY    73  41  31 CALM      30.36R
KINGMAN        CLEAR     84  27  12 S12       30.07S
FLAGSTAFF      PTCLDY    71  40  32 W3        30.40R

$$

REGIONAL REPORTS    NEVADA/IDAHO/WYOMING

CITY           SKY/WX    TMP DP  RH WIND       PRES   REMARKS
LAS VEGAS, NV  PTCLDY    99  21   6 SW12      29.90R HX  92
ELY            CLEAR     68  18  14 S12       30.25R
ELKO           PTCLDY    85  18   8 S14       30.06R
POCATELLO, ID  CLEAR     75  50  41 E7        30.12S
BURLEY         CLEAR     72  49  44 CALM      30.04R
EVANSTON, WY   CLEAR     79  31  17 N3        30.37R
ROCK SPRINGS   CLEAR     80  22  11 E5        30.35R

$$



USA.gov is the U.S. government's official web portal to all federal, state and local government web resources and services.